#timestamp,LO_Frequency,Hit,StdDev 
1531555215.5,286046996.9,N
1531555235.3,286046999.3,N
1531555255.1,286046999.0,N
1531555275.9,286046997.3,N
1531555295.7,286046996.5,N
1531555315.5,286046996.9,N
1531555335.4,286046997.7,N
1531555355.2,286046999.6,N
1531555375.1,286046996.7,N
1531555376.0,286046996.7,N
1531555395.8,286046997.5,N
1531555415.6,286046997.0,N
1531555435.5,286046996.9,N
1531555455.3,286046996.8,N
1531555475.1,286046997.9,N
1531555495.9,286046996.7,N
1531555515.7,286046995.3,N
1531555535.6,286046995.5,N
1531555555.4,286046995.0,N
1531555575.2,286046995.1,N
1531555595.1,286046996.0,N
1531555596.0,286046996.0,N
1531555615.8,286046995.9,N
1531555635.6,286046995.6,Y
1531555655.5,286046999.3,P
1531555675.3,286046998.9,N
1531555695.2,286046998.1,N
1531555715.9,286046998.4,N
1531555735.7,286047001.2,N
1531555755.6,286046998.8,N
1531555775.4,286046998.7,N
1531555795.2,286046998.8,N
1531555815.1,286046998.2,N
1531555816.0,286046998.2,N
1531555835.8,286046998.5,N
1531555855.7,286046998.3,N
1531555875.5,286046999.4,N
1531555895.3,286046998.9,N
1531555915.2,286047001.2,N
1531555935.9,286047000.7,N
1531555955.7,286046998.8,N
1531555975.6,286047001.1,N
1531555995.4,286047001.1,N
1531556015.2,286046998.7,N
1531556035.1,286046999.3,N
1531556036.0,286046999.3,N
1531556055.8,286046999.3,N
1531556075.7,286046999.3,N
1531556095.5,286046999.3,N
1531556115.3,286046999.1,N
1531556135.2,286046999.4,N
1531556155.0,286046999.2,N
1531556155.9,286046999.2,N
1531556175.7,286046999.2,N
1531556195.6,286046999.6,N
1531556215.4,286046996.6,Y
1531556235.3,286046997.8,P
1531556255.1,286046997.1,P
1531556275.8,286046996.8,P
1531556295.7,286046997.6,N
1531556315.5,286046997.7,N
1531556335.4,286046997.9,N
1531556355.2,286046997.6,Y
1531556375.0,286046999.4,P
1531556375.9,286046999.4,N
1531556395.8,286046998.9,N
1531556415.6,286046998.8,N
1531556435.4,286046998.4,N
1531556455.3,286047001.2,N
1531556475.1,286046999.2,N
1531556495.9,286046998.7,N
1531556515.7,286046998.7,N
1531556565.5,286046998.8,E
1531556575.5,286046999.4,N
1531556595.3,286046998.6,P
1531556615.1,286046998.4,P
1531556635.9,286047001.2,N
1531556655.7,286046998.3,N
1531556675.5,286047000.6,N
1531556695.4,286047000.7,N
1531556715.2,286046998.3,N
1531556735.1,286046998.6,N
1531556736.0,286046998.6,N
1531556755.8,286047001.2,N
1531556775.6,286046998.7,N
1531556795.5,286046998.8,N
1531556815.3,286046999.3,N
1531556835.1,286046998.9,N
1531556855.9,286046999.1,N
1531556875.7,286046996.8,Y
1531556895.2,286046999.1,P
1531556915.0,286046998.7,P
1531556915.9,286046998.7,P
1531556935.8,286047000.7,N
1531556955.6,286046999.1,N
1531556975.5,286046999.0,N
1531556995.3,286047001.0,N
1531557015.1,286047001.0,N
1531557035.9,286047001.2,N
1531557055.7,286047000.6,N
1531557075.5,286047000.9,N
1531557095.4,286046999.8,N
1531557115.2,286047000.5,N
1531557135.1,286047000.6,N
1531557136.0,286047000.6,N
1531557155.8,286047000.2,N
1531557175.6,286047002.5,N
1531557195.5,286046999.7,N
1531557215.3,286047002.0,N
1531557235.2,286047000.3,N
1531557255.9,286046999.8,N
1531557275.7,286047002.8,N
1531557295.6,286047000.3,N
1531557315.4,286046999.9,N
1531557335.2,286047002.7,N
1531557355.1,286047002.6,N
1531557356.0,286047002.6,N
1531557375.8,286047002.3,N
1531557395.7,286046999.7,N
1531557415.5,286047002.5,N
1531557435.3,286047002.1,N
1531557455.2,286047004.3,Y
1531557475.0,286047002.5,P
1531557475.9,286047002.5,N
1531557495.8,286047001.5,N
1531557515.6,286047001.3,N
1531557535.4,286047003.9,Y
1531557555.3,286047002.3,P
1531557575.1,286046999.9,N
1531557595.9,286047000.6,N
1531557615.7,286047000.6,N
1531557635.5,286047000.7,N
1531557655.4,286046998.9,N
1531557675.2,286046996.9,Y
1531557695.1,286046997.4,P
1531557696.0,286046997.4,N
1531557715.8,286046999.5,N
1531557735.6,286046997.0,N
1531557755.5,286046996.8,N
1531557775.3,286046997.1,N
1531557795.1,286046997.2,N
1531557815.9,286046996.6,N
1531557835.7,286046999.6,N
1531557855.6,286046998.4,N
1531557875.4,286046998.4,N
1531557895.2,286046998.3,N
1531557915.1,286046998.2,N
1531557916.0,286046998.2,N
1531557935.8,286046999.2,N
1531557985.7,286046998.4,E
1531557995.6,286047000.9,N
1531558015.4,286047000.8,P
1531558035.3,286047000.6,P
1531558055.1,286047000.4,N
1531558075.8,286047002.0,Y
1531558095.7,286047002.5,P
1531558115.5,286047002.4,N
1531558135.4,286047000.1,N
1531558155.2,286047000.2,N
1531558175.0,286047000.1,N
1531558195.1,286047002.6,N
1531558215.9,286047001.9,N
1531558235.7,286047004.4,Y
1531558255.6,286047000.0,P
1531558275.4,286046998.2,N
1531558295.2,286047001.1,N
1531558315.1,286046998.1,N
1531558316.0,286046998.1,N
1531558335.8,286047001.1,N
1531558355.7,286047000.7,N
1531558375.5,286047001.2,N
1531558395.4,286047000.0,N
1531558415.2,286047000.1,N
1531558435.0,286047002.7,N
1531558435.9,286047002.7,N
1531558455.8,286047000.1,N
1531558475.6,286047000.1,N
1531558495.5,286046999.9,N
1531558515.3,286047002.6,N
1531558535.1,286047001.6,N
1531558555.9,286047001.9,N
1531558575.7,286047001.9,N
1531558595.5,286047002.6,N
1531558615.4,286047002.1,N
1531558635.2,286047002.3,N
1531558655.1,286046999.9,N
1531558656.0,286046999.9,N
1531558675.8,286047000.7,N
1531558695.6,286047001.0,N
1531558715.5,286047001.1,N
1531558735.3,286047000.9,N
1531558755.1,286046998.7,N
1531558775.9,286046998.1,N
1531558795.7,286047001.1,N
